ECHOSTAR 19

Last updated on Wed Mar 11 2026 00:02:54 GMT+0000 (Coordinated Universal Time)

1 41893U 16079A 26069.49121411 -.00000137 00000+0 00000+0 0 9994 2 41893 0.0169 129.2164 0001405 232.7621 245.9081 1.00271289 33714
UTC large
Height (km)
Speed (km/s)
/
Latitude / Longitude
Inclination (degrees)
Orbital Period (minutes)
Azimuth
Elevation
Range (km)
Doppler Factor

Next 0 passes for location: London (51.5072 / 0.1276)

Sorry there are no passes over London.